Date,TemperatureHighF,TemperatureAvgF,TemperatureLowF,DewpointHighF,DewpointAvgF,DewpointLowF,HumidityHigh,HumidityAvg,HumidityLow,PressureMaxIn,PressureMinIn,WindSpeedMaxMPH,WindSpeedAvgMPH,GustSpeedMaxMPH,PrecipitationSumIn
2013-3-5,48,43,0,19,13,-3,41,29,12,29.89,29.75,8,3,11,0.01
2013-3-6,41,40,38,33,30,29,74,70,67,30.08,29.66,8,0,8,0.00
2013-3-7,47,40,34,32,29,27,74,63,51,30.21,29.91,27,9,27,0.00
2013-3-8,48,41,35,30,27,24,70,58,46,30.05,29.91,27,12,27,0.00
2013-3-9,59,44,32,31,26,21,68,52,31,30.12,29.98,27,8,27,0.00
2013-3-10,65,47,27,40,27,19,75,50,29,30.05,29.91,27,13,27,0.00
2013-3-11,62,52,42,48,38,25,75,60,35,29.93,29.59,25,8,25,0.00
2013-3-12,58,51,41,51,41,29,85,70,57,29.72,29.50,25,3,25,0.63
2013-3-13,50,39,30,32,26,20,77,59,40,29.82,29.65,27,8,27,0.00
2013-3-14,44,36,31,21,19,16,60,49,39,29.88,29.79,27,14,27,0.00
2013-3-15,59,44,28,37,27,18,66,51,38,29.84,29.52,27,13,27,0.00
2013-3-16,49,42,36,38,33,30,83,72,56,29.69,29.42,25,8,25,0.00
2013-3-17,44,38,36,33,28,24,82,68,52,30.00,29.67,27,14,27,0.00
2013-3-18,36,34,32,30,27,22,86,75,57,30.03,29.64,27,20,27,0.00
2013-3-19,57,42,33,46,29,17,87,64,29,29.68,29.48,27,12,27,0.33
2013-3-20,53,42,33,28,20,15,67,43,30,29.72,29.51,27,10,27,0.00
2013-3-21,37,32,27,26,15,9,65,50,38,29.64,29.53,27,13,27,0.00
2013-3-22,44,36,27,22,18,12,57,49,40,29.76,29.62,27,17,27,0.00
2013-3-23,52,39,26,30,22,16,67,51,35,29.77,29.66,27,22,27,0.00
2013-3-24,46,36,26,29,24,17,78,61,46,29.75,29.39,27,23,27,0.00
2013-3-25,44,37,33,35,31,28,85,80,71,30.05,29.31,27,23,27,0.04
2013-3-26,49,40,32,35,31,28,86,70,49,30.34,30.04,27,14,27,0.04
2013-3-27,50,42,34,32,28,25,73,60,44,30.46,30.34,27,15,27,0.00
2013-3-28,49,42,36,34,30,26,69,62,54,30.57,30.41,27,18,27,0.00
2013-3-29,56,47,38,38,31,15,72,56,39,30.59,30.47,27,17,27,0.00
2013-3-30,63,34,0,37,29,-4,76,27,31,30.57,30.41,27,10,27,0.00
2013-3-31,50,42,35,45,35,23,86,75,53,30.43,30.08,27,15,27,0.24